| time (UTC) | temp C | wind direction | speed KPH | gust KPH | rain 1hr cm | rain 24hr cm | rain mn cm | humidity % | barometer mb |
| 20260902224437 | 12 | 160 | 4.8 | 0.0 | 0.00 | 0.00 | 0.00 | 87 | 1017.0 |
| 20260902223258 | 12 | 160 | 4.8 | 0.0 | 0.00 | 0.00 | 0.00 | 87 | 1017.0 |
| 20260902221807 | 12 | 160 | 4.8 | 0.0 | 0.00 | 0.00 | 0.00 | 87 | 1017.0 |
| 20260902221052 | 12 | 150 | 4.8 | 0.0 | 0.00 | 0.00 | 0.00 | 87 | 1017.0 |
| 20260902220304 | 12 | 150 | 4.8 | 0.0 | 0.00 | 0.00 | 0.00 | 87 | 1017.0 |
| 20260902215102 | 12 | 150 | 4.8 | 0.0 | 0.00 | 0.00 | 0.00 | 87 | 1017.0 |
| 20260902214800 | 12 | 150 | 4.8 | 0.0 | 0.00 | 0.00 | 0.00 | 87 | 1017.0 |
| 20260902213259 | 12 | 0.0 | 0.0 | 0.00 | 0.00 | 0.00 | 87 | 1017.0 | |
| 20260902213101 | 12 | 0.0 | 0.0 | 0.00 | 0.00 | 0.00 | 87 | 1017.0 | |
| 20260902211801 | 12 | 0.0 | 0.0 | 0.00 | 0.00 | 0.00 | 87 | 1017.0 | |
| 20260902211059 | 15 | 140 | 3.2 | 0.0 | 0.00 | 0.00 | 0.00 | 82 | 1017.0 |
| 20260902210439 | 15 | 140 | 3.2 | 0.0 | 0.00 | 0.00 | 0.00 | 82 | 1017.0 |
| 20260902210259 | 15 | 140 | 3.2 | 0.0 | 0.00 | 0.00 | 0.00 | 82 | 1017.0 |
| 20260902204759 | 15 | 140 | 3.2 | 0.0 | 0.00 | 0.00 | 0.00 | 82 | 1017.0 |
| 20260902204437 | 12 | 150 | 4.8 | 0.0 | 0.00 | 0.00 | 0.00 | 93 | 1017.0 |
| 20260902203258 | 12 | 150 | 4.8 | 0.0 | 0.00 | 0.00 | 0.00 | 93 | 1017.0 |
| 20260902203053 | 12 | 150 | 4.8 | 0.0 | 0.00 | 0.00 | 0.00 | 93 | 1017.0 |
| 20260902201800 | 12 | 150 | 4.8 | 0.0 | 0.00 | 0.00 | 0.00 | 93 | 1017.0 |
| 20260902201051 | 13 | 140 | 8.0 | 0.0 | 0.00 | 0.00 | 0.00 | 87 | 1017.0 |
| 20260902200258 | 13 | 140 | 8.0 | 0.0 | 0.00 | 0.00 | 0.00 | 87 | 1017.0 |
| 20260902195054 | 13 | 140 | 8.0 | 0.0 | 0.00 | 0.00 | 0.00 | 87 | 1017.0 |
| 20260902194759 | 13 | 140 | 8.0 | 0.0 | 0.00 | 0.00 | 0.00 | 87 | 1017.0 |
| 20260902193258 | 15 | 150 | 3.2 | 0.0 | 0.00 | 0.00 | 0.00 | 82 | 1017.0 |
| 20260902193052 | 15 | 150 | 3.2 | 0.0 | 0.00 | 0.00 | 0.00 | 82 | 1017.0 |
| 20260902191800 | 15 | 150 | 3.2 | 0.0 | 0.00 | 0.00 | 0.00 | 82 | 1017.0 |
| 20260902191051 | 16 | 140 | 4.8 | 0.0 | 0.00 | 0.00 | 0.00 | 82 | 1017.0 |
| 20260902190258 | 16 | 140 | 4.8 | 0.0 | 0.00 | 0.00 | 0.00 | 82 | 1017.0 |
| 20260902185055 | 16 | 140 | 4.8 | 0.0 | 0.00 | 0.00 | 0.00 | 82 | 1017.0 |
| 20260902184800 | 16 | 140 | 4.8 | 0.0 | 0.00 | 0.00 | 0.00 | 82 | 1017.0 |
| 20260902183258 | 18 | 200 | 3.2 | 0.0 | 0.00 | 0.00 | 0.00 | 59 | 1017.0 |
| 20260902183053 | 18 | 200 | 3.2 | 0.0 | 0.00 | 0.00 | 0.00 | 59 | 1017.0 |
| 20260902181800 | 18 | 200 | 3.2 | 0.0 | 0.00 | 0.00 | 0.00 | 59 | 1017.0 |
| 20260902181052 | 18 | 230 | 4.8 | 0.0 | 0.00 | 0.00 | 0.00 | 59 | 1017.0 |
| 20260902180258 | 18 | 230 | 4.8 | 0.0 | 0.00 | 0.00 | 0.00 | 59 | 1017.0 |
| 20260902175054 | 18 | 230 | 4.8 | 0.0 | 0.00 | 0.00 | 0.00 | 59 | 1017.0 |
| 20260902174759 | 18 | 230 | 4.8 | 0.0 | 0.00 | 0.00 | 0.00 | 59 | 1017.0 |
| 20260902173258 | 20 | 250 | 8.0 | 0.0 | 0.00 | 0.00 | 0.00 | 56 | 1017.0 |
| 20260902173052 | 20 | 250 | 8.0 | 0.0 | 0.00 | 0.00 | 0.00 | 56 | 1017.0 |
| 20260902171800 | 20 | 250 | 8.0 | 0.0 | 0.00 | 0.00 | 0.00 | 56 | 1017.0 |
| 20260902171051 | 20 | 240 | 8.0 | 0.0 | 0.00 | 0.00 | 0.00 | 56 | 1017.0 |
| 20260902170258 | 20 | 240 | 8.0 | 0.0 | 0.00 | 0.00 | 0.00 | 56 | 1017.0 |
| 20260902165056 | 20 | 240 | 8.0 | 0.0 | 0.00 | 0.00 | 0.00 | 56 | 1017.0 |
| 20260902164759 | 20 | 240 | 8.0 | 0.0 | 0.00 | 0.00 | 0.00 | 56 | 1017.0 |
| 20260902163301 | 21 | 260 | 14.5 | 0.0 | 0.00 | 0.00 | 0.00 | 49 | 1017.0 |
| 20260902163055 | 21 | 260 | 14.5 | 0.0 | 0.00 | 0.00 | 0.00 | 49 | 1017.0 |
| 20260902161803 | 21 | 260 | 14.5 | 0.0 | 0.00 | 0.00 | 0.00 | 49 | 1017.0 |
| 20260902161053 | 21 | 240 | 14.5 | 0.0 | 0.00 | 0.00 | 0.00 | 49 | 1017.0 |
| 20260902160303 | 21 | 240 | 14.5 | 0.0 | 0.00 | 0.00 | 0.00 | 49 | 1017.0 |
| 20260902155058 | 21 | 240 | 14.5 | 0.0 | 0.00 | 0.00 | 0.00 | 49 | 1017.0 |
| 20260902154802 | 21 | 240 | 14.5 | 0.0 | 0.00 | 0.00 | 0.00 | 49 | 1017.0 |
| 20260902153301 | 21 | 200 | 12.9 | 0.0 | 0.00 | 0.00 | 0.00 | 56 | 1018.0 |
| 20260902153056 | 21 | 200 | 12.9 | 0.0 | 0.00 | 0.00 | 0.00 | 56 | 1018.0 |
| 20260902151800 | 21 | 200 | 12.9 | 0.0 | 0.00 | 0.00 | 0.00 | 56 | 1018.0 |
| 20260902151055 | 20 | 240 | 9.7 | 0.0 | 0.00 | 0.00 | 0.00 | 56 | 1018.0 |
| 20260902150259 | 20 | 240 | 9.7 | 0.0 | 0.00 | 0.00 | 0.00 | 56 | 1018.0 |
| 20260902145102 | 20 | 240 | 9.7 | 0.0 | 0.00 | 0.00 | 0.00 | 56 | 1018.0 |
| 20260902144759 | 20 | 240 | 9.7 | 0.0 | 0.00 | 0.00 | 0.00 | 56 | 1018.0 |
| 20260902143303 | 21 | 240 | 16.1 | 0.0 | 0.00 | 0.00 | 0.00 | 52 | 1018.0 |
| 20260902143100 | 21 | 240 | 16.1 | 0.0 | 0.00 | 0.00 | 0.00 | 52 | 1018.0 |
| 20260902141800 | 21 | 240 | 16.1 | 0.0 | 0.00 | 0.00 | 0.00 | 52 | 1018.0 |
| 20260902141059 | 20 | 220 | 11.3 | 0.0 | 0.00 | 0.00 | 0.00 | 56 | 1018.0 |
| 20260902140301 | 20 | 220 | 11.3 | 0.0 | 0.00 | 0.00 | 0.00 | 56 | 1018.0 |
| 20260902135053 | 20 | 220 | 11.3 | 0.0 | 0.00 | 0.00 | 0.00 | 56 | 1018.0 |
| 20260902134803 | 20 | 220 | 11.3 | 0.0 | 0.00 | 0.00 | 0.00 | 56 | 1018.0 |
| 20260902133259 | 20 | 250 | 9.7 | 0.0 | 0.00 | 0.00 | 0.00 | 59 | 1018.0 |
| 20260902133052 | 20 | 250 | 9.7 | 0.0 | 0.00 | 0.00 | 0.00 | 59 | 1018.0 |
| 20260902131800 | 20 | 250 | 9.7 | 0.0 | 0.00 | 0.00 | 0.00 | 59 | 1018.0 |
| 20260902131050 | 20 | 230 | 12.9 | 0.0 | 0.00 | 0.00 | 0.00 | 59 | 1018.0 |
| 20260902130258 | 20 | 230 | 12.9 | 0.0 | 0.00 | 0.00 | 0.00 | 59 | 1018.0 |
| 20260902125054 | 20 | 230 | 12.9 | 0.0 | 0.00 | 0.00 | 0.00 | 59 | 1018.0 |
| 20260902124800 | 20 | 230 | 12.9 | 0.0 | 0.00 | 0.00 | 0.00 | 59 | 1018.0 |
| 20260902123258 | 20 | 250 | 12.9 | 0.0 | 0.00 | 0.00 | 0.00 | 59 | 1019.0 |
| 20260902123052 | 20 | 250 | 12.9 | 0.0 | 0.00 | 0.00 | 0.00 | 59 | 1019.0 |
| 20260902121800 | 20 | 250 | 12.9 | 0.0 | 0.00 | 0.00 | 0.00 | 59 | 1019.0 |
| 20260902121051 | 20 | 260 | 14.5 | 0.0 | 0.00 | 0.00 | 0.00 | 64 | 1019.0 |
| 20260902120434 | 20 | 260 | 14.5 | 0.0 | 0.00 | 0.00 | 0.00 | 64 | 1019.0 |
| 20260902120258 | 20 | 260 | 14.5 | 0.0 | 0.00 | 0.00 | 0.00 | 64 | 1019.0 |
| 20260902114759 | 20 | 260 | 14.5 | 0.0 | 0.00 | 0.00 | 0.00 | 64 | 1019.0 |
| 20260902114433 | 20 | 240 | 14.5 | 0.0 | 0.00 | 0.00 | 0.00 | 59 | 1019.0 |
| 20260902113257 | 20 | 240 | 14.5 | 0.0 | 0.00 | 0.00 | 0.00 | 59 | 1019.0 |
| 20260902113052 | 20 | 240 | 14.5 | 0.0 | 0.00 | 0.00 | 0.00 | 59 | 1019.0 |
| 20260902111800 | 20 | 240 | 14.5 | 0.0 | 0.00 | 0.00 | 0.00 | 59 | 1019.0 |
| 20260902111051 | 18 | 250 | 14.5 | 0.0 | 0.00 | 0.00 | 0.00 | 63 | 1019.0 |
| 20260902110258 | 18 | 250 | 14.5 | 0.0 | 0.00 | 0.00 | 0.00 | 63 | 1019.0 |
| 20260902105053 | 18 | 250 | 14.5 | 0.0 | 0.00 | 0.00 | 0.00 | 63 | 1019.0 |
| 20260902104759 | 18 | 250 | 14.5 | 0.0 | 0.00 | 0.00 | 0.00 | 63 | 1019.0 |
| 20260902103258 | 17 | 260 | 16.1 | 0.0 | 0.00 | 0.00 | 0.00 | 72 | 1019.0 |
| 20260902103051 | 17 | 260 | 16.1 | 0.0 | 0.00 | 0.00 | 0.00 | 72 | 1019.0 |
| 20260902101759 | 17 | 260 | 16.1 | 0.0 | 0.00 | 0.00 | 0.00 | 72 | 1019.0 |
| 20260902101050 | 20 | 280 | 16.1 | 0.0 | 0.00 | 0.00 | 0.00 | 64 | 1019.0 |
| 20260902100257 | 20 | 280 | 16.1 | 0.0 | 0.00 | 0.00 | 0.00 | 64 | 1019.0 |
| 20260902095053 | 20 | 280 | 16.1 | 0.0 | 0.00 | 0.00 | 0.00 | 64 | 1019.0 |
| 20260902094759 | 20 | 280 | 16.1 | 0.0 | 0.00 | 0.00 | 0.00 | 64 | 1019.0 |
| 20260902093258 | 17 | 240 | 14.5 | 0.0 | 0.00 | 0.00 | 0.00 | 77 | 1019.0 |
| 20260902093051 | 17 | 240 | 14.5 | 0.0 | 0.00 | 0.00 | 0.00 | 77 | 1019.0 |
| 20260902091800 | 17 | 240 | 14.5 | 0.0 | 0.00 | 0.00 | 0.00 | 77 | 1019.0 |
| 20260902091050 | 17 | 260 | 14.5 | 0.0 | 0.00 | 0.00 | 0.00 | 82 | 1019.0 |
| 20260902090257 | 17 | 260 | 14.5 | 0.0 | 0.00 | 0.00 | 0.00 | 82 | 1019.0 |
| 20260902085056 | 17 | 260 | 14.5 | 0.0 | 0.00 | 0.00 | 0.00 | 82 | 1019.0 |
| 20260902084759 | 17 | 260 | 14.5 | 0.0 | 0.00 | 0.00 | 0.00 | 82 | 1019.0 |
| 20260902083257 | 16 | 250 | 9.7 | 0.0 | 0.00 | 0.00 | 0.00 | 87 | 1019.0 |
| 20260902083054 | 16 | 250 | 9.7 | 0.0 | 0.00 | 0.00 | 0.00 | 87 | 1019.0 |
| 20260902081800 | 16 | 250 | 9.7 | 0.0 | 0.00 | 0.00 | 0.00 | 87 | 1019.0 |
| 20260902081052 | 15 | 260 | 12.9 | 0.0 | 0.00 | 0.00 | 0.00 | 93 | 1019.0 |
| 20260902080257 | 15 | 260 | 12.9 | 0.0 | 0.00 | 0.00 | 0.00 | 93 | 1019.0 |
| 20260902075056 | 15 | 260 | 12.9 | 0.0 | 0.00 | 0.00 | 0.00 | 93 | 1019.0 |
| 20260902074758 | 15 | 260 | 12.9 | 0.0 | 0.00 | 0.00 | 0.00 | 93 | 1019.0 |
| 20260902073256 | 15 | 260 | 12.9 | 0.0 | 0.00 | 0.00 | 0.00 | 93 | 1019.0 |
| 20260902073054 | 15 | 260 | 12.9 | 0.0 | 0.00 | 0.00 | 0.00 | 93 | 1019.0 |
| 20260902071759 | 15 | 260 | 12.9 | 0.0 | 0.00 | 0.00 | 0.00 | 93 | 1019.0 |
| 20260902071052 | 15 | 260 | 16.1 | 0.0 | 0.00 | 0.00 | 0.00 | 93 | 1018.0 |
| 20260902070257 | 15 | 260 | 16.1 | 0.0 | 0.00 | 0.00 | 0.00 | 93 | 1018.0 |
| 20260902065055 | 15 | 260 | 16.1 | 0.0 | 0.00 | 0.00 | 0.00 | 93 | 1018.0 |
| 20260902064759 | 15 | 260 | 16.1 | 0.0 | 0.00 | 0.00 | 0.00 | 93 | 1018.0 |
| 20260902063258 | 13 | 250 | 11.3 | 0.0 | 0.00 | 0.00 | 0.00 | 93 | 1018.0 |
| 20260902063054 | 13 | 250 | 11.3 | 0.0 | 0.00 | 0.00 | 0.00 | 93 | 1018.0 |
| 20260902061759 | 13 | 250 | 11.3 | 0.0 | 0.00 | 0.00 | 0.00 | 93 | 1018.0 |
| 20260902061052 | 13 | 230 | 8.0 | 0.0 | 0.00 | 0.00 | 0.00 | 93 | 1018.0 |
| 20260902060257 | 13 | 230 | 8.0 | 0.0 | 0.00 | 0.00 | 0.00 | 93 | 1018.0 |
| 20260902055054 | 13 | 230 | 8.0 | 0.0 | 0.00 | 0.00 | 0.00 | 93 | 1018.0 |
| 20260902054758 | 13 | 230 | 8.0 | 0.0 | 0.00 | 0.00 | 0.00 | 93 | 1018.0 |
| 20260902053258 | 12 | 0.0 | 0.0 | 0.00 | 0.00 | 0.00 | 100 | 1018.0 | |
| 20260902053053 | 12 | 0.0 | 0.0 | 0.00 | 0.00 | 0.00 | 100 | 1018.0 | |
| 20260902051759 | 12 | 0.0 | 0.0 | 0.00 | 0.00 | 0.00 | 100 | 1018.0 | |
| 20260902051051 | 12 | 0.0 | 0.0 | 0.00 | 0.00 | 0.00 | 100 | 1018.0 | |
| 20260902050257 | 12 | 0.0 | 0.0 | 0.00 | 0.00 | 0.00 | 100 | 1018.0 | |
| 20260902045055 | 12 | 0.0 | 0.0 | 0.00 | 0.00 | 0.00 | 100 | 1018.0 | |
| 20260902044759 | 12 | 0.0 | 0.0 | 0.00 | 0.00 | 0.00 | 100 | 1018.0 | |
| 20260902043257 | 11 | 190 | 4.8 | 0.0 | 0.00 | 0.00 | 0.00 | 100 | 1018.0 |
| 20260902043054 | 11 | 190 | 4.8 | 0.0 | 0.00 | 0.00 | 0.00 | 100 | 1018.0 |
| 20260902041759 | 11 | 190 | 4.8 | 0.0 | 0.00 | 0.00 | 0.00 | 100 | 1018.0 |
| 20260902041052 | 10 | 200 | 3.2 | 0.0 | 0.00 | 0.00 | 0.00 | 100 | 1017.0 |
| 20260902040257 | 10 | 200 | 3.2 | 0.0 | 0.00 | 0.00 | 0.00 | 100 | 1017.0 |
| 20260902035054 | 10 | 200 | 3.2 | 0.0 | 0.00 | 0.00 | 0.00 | 100 | 1017.0 |
| 20260902034758 | 10 | 200 | 3.2 | 0.0 | 0.00 | 0.00 | 0.00 | 100 | 1017.0 |
| 20260902033258 | 11 | 0.0 | 0.0 | 0.00 | 0.00 | 0.00 | 100 | 1018.0 | |
| 20260902033052 | 11 | 0.0 | 0.0 | 0.00 | 0.00 | 0.00 | 100 | 1018.0 | |
| 20260902031759 | 11 | 0.0 | 0.0 | 0.00 | 0.00 | 0.00 | 100 | 1018.0 | |
| 20260902031051 | 11 | 0.0 | 0.0 | 0.00 | 0.00 | 0.00 | 100 | 1017.0 | |
| 20260902030257 | 11 | 0.0 | 0.0 | 0.00 | 0.00 | 0.00 | 100 | 1017.0 | |
| 20260902025055 | 11 | 0.0 | 0.0 | 0.00 | 0.00 | 0.00 | 100 | 1017.0 | |
| 20260902024758 | 11 | 0.0 | 0.0 | 0.00 | 0.00 | 0.00 | 100 | 1017.0 | |
| 20260902023258 | 12 | 210 | 3.2 | 0.0 | 0.00 | 0.00 | 0.00 | 93 | 1017.0 |
| 20260902023053 | 12 | 210 | 3.2 | 0.0 | 0.00 | 0.00 | 0.00 | 93 | 1017.0 |
| 20260902021759 | 12 | 210 | 3.2 | 0.0 | 0.00 | 0.00 | 0.00 | 93 | 1017.0 |
| 20260902021052 | 12 | 0.0 | 0.0 | 0.00 | 0.00 | 0.00 | 93 | 1017.0 | |
| 20260902020257 | 12 | 0.0 | 0.0 | 0.00 | 0.00 | 0.00 | 93 | 1017.0 | |
| 20260902015055 | 12 | 0.0 | 0.0 | 0.00 | 0.00 | 0.00 | 93 | 1017.0 | |
| 20260902014758 | 12 | 0.0 | 0.0 | 0.00 | 0.00 | 0.00 | 93 | 1017.0 | |
| 20260902013257 | 12 | 180 | 4.8 | 0.0 | 0.00 | 0.00 | 0.00 | 93 | 1017.0 |
| 20260902013054 | 12 | 180 | 4.8 | 0.0 | 0.00 | 0.00 | 0.00 | 93 | 1017.0 |
| 20260902011759 | 12 | 180 | 4.8 | 0.0 | 0.00 | 0.00 | 0.00 | 93 | 1017.0 |
| 20260902011052 | 12 | 250 | 9.7 | 0.0 | 0.00 | 0.00 | 0.00 | 93 | 1017.0 |
| 20260902010302 | 12 | 250 | 9.7 | 0.0 | 0.00 | 0.00 | 0.00 | 93 | 1017.0 |
| 20260902005055 | 12 | 250 | 9.7 | 0.0 | 0.00 | 0.00 | 0.00 | 93 | 1017.0 |
| 20260902004758 | 12 | 250 | 9.7 | 0.0 | 0.00 | 0.00 | 0.00 | 93 | 1017.0 |
| 20260902003257 | 12 | 250 | 9.7 | 0.0 | 0.00 | 0.00 | 0.00 | 93 | 1017.0 |
| 20260902003054 | 12 | 250 | 9.7 | 0.0 | 0.00 | 0.00 | 0.00 | 93 | 1017.0 |
| 20260902001759 | 12 | 250 | 9.7 | 0.0 | 0.00 | 0.00 | 0.00 | 93 | 1017.0 |
| 20260902001052 | 13 | 240 | 11.3 | 0.0 | 0.00 | 0.00 | 0.00 | 93 | 1017.0 |
| 20260902000259 | 13 | 240 | 11.3 | 0.0 | 0.00 | 0.00 | 0.00 | 93 | 1017.0 |
| 20260901235055 | 13 | 240 | 11.3 | 0.0 | 0.00 | 0.00 | 0.00 | 93 | 1017.0 |
| 20260901234757 | 13 | 240 | 11.3 | 0.0 | 0.00 | 0.00 | 0.00 | 93 | 1017.0 |
| 20260901233257 | 13 | 260 | 12.9 | 0.0 | 0.00 | 0.00 | 0.00 | 93 | 1017.0 |
| 20260901233053 | 13 | 260 | 12.9 | 0.0 | 0.00 | 0.00 | 0.00 | 93 | 1017.0 |
| 20260901231759 | 13 | 260 | 12.9 | 0.0 | 0.00 | 0.00 | 0.00 | 93 | 1017.0 |
| 20260901231052 | 15 | 260 | 16.1 | 0.0 | 0.00 | 0.00 | 0.00 | 87 | 1017.0 |
| 20260901230258 | 15 | 260 | 16.1 | 0.0 | 0.00 | 0.00 | 0.00 | 87 | 1017.0 |
| 20260901225055 | 15 | 260 | 16.1 | 0.0 | 0.00 | 0.00 | 0.00 | 87 | 1017.0 |
| 20260901224758 | 15 | 260 | 16.1 | 0.0 | 0.00 | 0.00 | 0.00 | 87 | 1017.0 |